DW9167 Weather Reports


Display with metric or nautical units.
time (UTC)temp
F
wind
direction
speed
MPH
gust
MPH
rain 1hr
in
rain 24hr
in
rain mn
in
humidity
%
barometer
mb
20260509183506 88 157 0.0 0.0 0.00 0.00 0.00 62 1000.7
20260509181507 85 286 1.0 3.0 0.00 0.00 0.00 68 1001.4
20260509180506 87 252 0.0 5.0 0.00 0.00 0.00 69 1001.4
20260509180405 87 315 0.0 0.0 0.00 0.00 0.00 68 1001.4
20260509175407 86 292 0.0 0.0 0.00 0.00 0.00 69 1001.4
20260509174506 85 302 1.0 4.0 0.00 0.00 0.00 70 1002.1
20260509173508 84 148 0.0 2.0 0.00 0.00 0.00 72 1002.4
20260509172508 84 331 3.0 6.0 0.00 0.00 0.00 72 1002.8
20260509170506 82 337 0.0 5.0 0.00 0.00 0.00 79 1002.4
20260509164505 81 184 0.0 2.0 0.00 0.00 0.00 86 1002.8
20260509163604 80 179 3.0 5.0 0.00 0.00 0.00 88 1003.2
20260509162607 80 176 1.0 5.0 0.00 0.00 0.00 86 1002.8
20260509161706 80 295 1.0 4.0 0.00 0.00 0.00 88 1003.2
20260509160709 78 178 0.0 3.0 0.00 0.00 0.00 92 1003.2
20260509154807 77 162 1.0 3.0 0.00 0.00 0.00 97 1003.2
20260509153906 76 168 2.0 5.0 0.00 0.00 0.00 98 1003.5
20260509152908 75 165 2.0 6.0 0.00 0.00 0.00 96 1003.5
20260509152005 75 164 0.0 1.0 0.00 0.00 0.00 96 1003.8
20260509151005 75 171 1.0 4.0 0.00 0.00 0.00 91 1003.5
20260509150007 74 173 0.0 1.0 0.00 0.00 0.00 88 1003.5
20260509145008 73 173 2.0 5.0 0.00 0.00 0.00 70 1003.8
20260509144105 73 180 0.0 0.0 0.00 0.00 0.00 65 1003.5
20260509143107 72 157 0.0 0.0 0.00 0.00 0.00 66 1003.5
20260509142205 72 173 1.0 5.0 0.00 0.00 0.00 63 1003.2
20260509141207 72 180 0.0 1.0 0.00 0.00 0.00 60 1003.1
20260509135207 72 180 0.0 3.0 0.00 0.00 0.00 46 1003.5
20260509134210 71 22 0.0 0.0 0.00 0.00 0.00 46 1003.8
20260509133305 71 22 0.0 2.0 0.00 0.00 0.00 46 1003.8
20260509132307 71 338 4.0 6.0 0.00 0.00 0.00 45 1003.8
20260509131307 70 22 0.0 2.0 0.00 0.00 0.00 45 1003.8
20260509130305 70 360 0.0 0.0 0.00 0.00 0.00 46 1003.6
20260509125308 70 112 0.0 0.0 0.00 0.00 0.00 46 1003.5
20260509124305 70 112 0.0 0.0 0.00 0.00 0.00 47 1003.5
20260509123306 70 112 0.0 0.0 0.00 0.00 0.00 48 1003.5
20260509122307 70 45 0.0 0.0 0.00 0.00 0.00 48 1003.5
20260509121306 70 45 0.0 0.0 0.00 0.00 0.00 50 1003.7
20260509120405 70 45 0.0 0.0 0.00 0.00 0.00 48 1003.8
20260509115407 70 340 1.0 3.0 0.00 0.00 0.00 47 1003.8
20260509114505 70 337 0.0 0.0 0.00 0.00 0.00 46 1003.5
20260509112505 70 360 0.0 2.0 0.00 0.00 0.00 48 1004.5
20260509111506 70 360 0.0 0.0 0.00 0.00 0.00 49 1004.2
20260509110507 70 22 0.0 1.0 0.00 0.00 0.00 51 1004.5
20260509105506 70 22 0.0 0.0 0.00 0.00 0.00 52 1004.2
20260509104505 70 22 0.0 0.0 0.00 0.00 0.00 56 1004.9
20260509103507 70 22 1.0 3.0 0.00 0.00 0.00 56 1004.9
20260509102507 70 45 0.0 1.0 0.00 0.00 0.00 58 1004.5
20260509101604 70 45 0.0 0.0 0.00 0.00 0.00 58 1004.2
20260509100606 70 45 0.0 0.0 0.00 0.00 0.00 61 1003.8
20260509095605 70 45 0.0 0.0 0.00 0.00 0.00 62 1003.2
20260509094608 70 45 0.0 0.0 0.00 0.00 0.00 63 1003.5
20260509093606 70 45 0.0 0.0 0.00 0.00 0.00 64 1003.5
20260509092607 70 45 0.0 0.0 0.00 0.00 0.00 64 1003.2
20260509091607 70 45 0.0 0.0 0.00 0.00 0.00 65 1003.2
20260509090706 70 45 0.0 0.0 0.00 0.00 0.00 66 1003.2
20260509085706 70 45 0.0 0.0 0.00 0.00 0.00 66 1003.2
20260509084805 70 45 0.0 0.0 0.00 0.00 0.00 67 1003.2
20260509083822 70 45 0.0 0.0 0.00 0.00 0.00 69 1003.5
20260509081907 70 45 0.0 0.0 0.00 0.00 0.00 70 1003.8
20260509081006 70 45 0.0 0.0 0.00 0.00 0.00 69 1003.5
20260509080007 70 45 0.0 0.0 0.00 0.00 0.00 72 1003.5
20260509075006 70 108 0.0 3.0 0.00 0.00 0.00 75 1003.5
20260509074007 70 180 0.0 0.0 0.00 0.00 0.00 77 1003.5
20260509073005 70 180 0.0 0.0 0.00 0.00 0.00 77 1003.8
20260509072006 70 180 0.0 0.0 0.00 0.00 0.00 78 1003.8
20260509071105 70 180 0.0 0.0 0.00 0.00 0.00 75 1003.8
20260509071007 70 180 0.0 0.0 0.00 0.00 0.00 75 1003.8
20260509070105 70 180 0.0 0.0 0.00 0.00 0.00 74 1003.8
20260509065204 69 180 0.0 0.0 0.00 0.00 0.00 79 1003.5
20260509064206 70 180 0.0 0.0 0.00 0.00 0.00 82 1003.5
20260509063206 70 180 0.0 0.0 0.00 0.00 0.00 83 1003.8
20260509061207 70 135 0.0 0.0 0.00 0.00 0.00 87 1003.2
20260509060206 71 157 0.0 0.0 0.00 0.00 0.00 90 1003.5
20260509055206 71 171 1.0 5.0 0.00 0.00 0.00 91 1003.5
20260509054207 71 180 0.0 2.0 0.00 0.00 0.00 92 1003.2
20260509053306 70 178 3.0 5.0 0.00 0.00 0.00 93 1002.8
20260509052323 71 164 1.0 5.0 0.00 0.00 0.00 94 1002.5
20260509050306 71 180 0.0 0.0 0.00 0.00 0.00 95 1002.8
20260509045405 71 180 0.0 1.0 0.00 0.00 0.00 96 1002.8
20260509044504 71 180 0.0 0.0 0.00 0.00 0.00 97 1002.8
20260509043603 72 180 0.0 2.0 0.00 0.00 0.00 97 1002.8
20260509042605 72 180 0.0 1.0 0.00 0.00 0.00 97 1002.8
20260509035604 72 180 0.0 2.0 0.00 0.00 0.00 97 1002.8
20260509034603 73 180 0.0 2.0 0.00 0.00 0.00 97 1002.8
20260509033604 73 180 0.0 0.0 0.00 0.00 0.00 97 1002.8
20260509032605 72 180 0.0 0.0 0.00 0.00 0.00 97 1002.8
20260509031704 71 180 0.0 0.0 0.00 0.00 0.00 96 1002.8
20260509024705 72 180 0.0 0.0 0.00 0.00 0.00 97 1002.4
20260509023705 72 180 0.0 0.0 0.00 0.00 0.00 96 1002.4
20260509022703 72 180 0.0 0.0 0.00 0.00 0.00 95 1002.1
20260509022604 73 180 0.0 0.0 0.00 0.00 0.00 96 1002.1
20260509021604 73 180 0.0 0.0 0.00 0.00 0.00 96 1002.1
20260509020602 72 180 0.0 0.0 0.00 0.00 0.00 94 1002.1
20260509015605 74 135 0.0 0.0 0.00 0.00 0.00 94 1001.4
20260509013604 74 135 0.0 1.0 0.00 0.00 0.00 92 1001.4
20260509012604 74 135 0.0 0.0 0.00 0.00 0.00 92 1001.4
20260509011606 75 135 0.0 0.0 0.00 0.00 0.00 91 1001.4
20260509010604 75 172 0.0 2.0 0.00 0.00 0.00 91 1001.4
20260509005603 75 180 0.0 0.0 0.00 0.00 0.00 89 1001.4
20260509004604 75 180 0.0 2.0 0.00 0.00 0.00 89 1001.1
20260509003702 75 200 0.0 1.0 0.00 0.00 0.00 88 1001.1
20260509002705 75 135 1.0 2.0 0.00 0.00 0.00 87 1001.4
20260509001703 76 169 0.0 4.0 0.00 0.00 0.00 87 1001.4
20260509000720 76 138 0.0 3.0 0.00 0.00 0.00 86 1001.1
20260508235803 77 180 0.0 5.0 0.00 0.00 0.00 85 1001.1
20260508234802 77 180 1.0 3.0 0.00 0.00 0.00 83 1001.1
20260508232904 78 164 0.0 1.0 0.00 0.00 0.00 82 1001.1
20260508232003 78 135 0.0 3.0 0.00 0.00 0.00 81 1001.1
20260508231004 78 180 0.0 2.0 0.00 0.00 0.00 81 1001.1
20260508230003 78 180 0.0 0.0 0.00 0.00 0.00 81 1001.4
20260508225103 78 180 0.0 0.0 0.00 0.00 0.00 79 1001.1
20260508224120 78 180 0.0 2.0 0.00 0.00 0.00 78 1001.1
20260508221105 80 150 0.0 2.0 0.00 0.00 0.00 75 1001.1
20260508220119 80 135 0.0 2.0 0.00 0.00 0.00 74 1001.1
20260508215203 81 180 0.0 0.0 0.00 0.00 0.00 72 1000.7
20260508214204 81 130 0.0 1.0 0.00 0.00 0.00 72 1001.4
20260508213205 79 180 3.0 5.0 0.00 0.00 0.00 75 1001.4
20260508212205 80 180 1.0 3.0 0.00 0.00 0.00 74 1001.4
20260508211205 79 270 0.0 0.0 0.00 0.00 0.00 76 1001.7
20260508210303 80 179 3.0 6.0 0.00 0.00 0.00 74 1002.0
20260508205306 79 175 0.0 3.0 0.00 0.00 0.00 75 1002.1
20260508203302 80 159 1.0 3.0 0.00 0.00 0.00 72 1001.7
20260508202307 81 135 1.0 2.0 0.00 0.00 0.00 71 1001.7
20260508201304 80 180 0.0 0.0 0.00 0.00 0.00 72 1002.0
20260508200304 81 112 0.0 0.0 0.00 0.00 0.00 72 1002.4
20260508194306 78 180 0.0 0.0 0.00 0.00 0.00 76 1002.8
20260508191403 78 339 0.0 2.0 0.00 0.00 0.00 74 1003.2
20260508190502 78 174 2.0 5.0 0.00 0.00 0.00 74 1002.8
20260508190405 78 175 2.0 6.0 0.00 0.00 0.00 74 1002.8
20260508185405 77 112 0.0 0.0 0.00 0.00 0.00 73 1003.1